Location: Newark
(30.1000°N, 109.4667°E)
Time: 21:34:03
(UTC+00:00)

SR - Pass Details

Date: 25 February 2020
Orbit: 578 x 877 km, 66.7° (Epoch: 09 April)

Event Time Altitude Azimuth Distance (km) Brightness Sun altitude
Rises 06:57:18 0° 211° (SSW) 3,404 ? 40.9°
Reaches altitude 10° 06:59:46 10° 214° (SSW) 2,493 ? 40.6°
Maximum altitude 07:05:33 67° 296° (WNW) 947 ? 39.7°
Drops below altitude 10° 07:11:25 10° 19° (NNE) 2,516 ? 38.8°
Sets 07:13:55 0° 22° (NNE) 3,438 ? 38.4°
